Flag for Botswana Weather past 2 weeks in Molepolole, Botswana

Now
70 °F

Sunny.


Feels Like: 70 °F
Forecast: 60 / 83 °F
Wind: 16 mph from Northeast

Location: Seretse Khama International Airport

Current Time: Sep 23, 2014 at 10:56:16 AM

Latest Report: Sep 23, 2014 at 9:00 AM


Visibility: 10 mi

Pressure: 30.30 "Hg

Humidity: 46%

Dew point: 48 °F

Location of MolepololeLocation

Historic Weather in Molepolole — Graph

°F

Molepolole temperature yesterday

Maximum temperature yesterday: 82 °F (at 2:00 PM)
Minimum temperature yesterday: 57 °F (at 4:00 AM)
Average temperature yesterday: 71 °F

Past Weeks' High & Low Weather Summary

 TemperatureHumidityPressure
High95 °F (Sep 17, 3:00 PM)82% (Sep 22, 4:00 AM)30.36 "Hg (Sep 22, 4:00 AM)
Low48 °F (Sep 20, 5:00 AM)7% (Sep 8, 3:00 PM)29.86 "Hg (Sep 18, 2:00 PM)
Average73 °F27%30.15 "Hg
* Reported Sep 8 9:00 AM — Sep 23 9:00 AM, Molepolole, Weather by CustomWeather, © 2014

Note: Actual official high and low records may vary slightly from our data, if they occured in-between our weather recording intervals... More about our weather records

Advertising

Molepolole weather history for previous 24 hours

 ConditionsComfort  
Time TempWeatherWind HumidityBarometerVisibility
9:00 AM
Sep 23
70 °FSunny.16 mph46%30.30 "Hg10 mi
8:00 AM66 °FSunny.14 mph52%30.30 "Hg10 mi
7:00 AM59 °FSunny.7 mph59%30.30 "Hg10 mi
6:00 AM59 °FSunny.6 mph59%30.27 "Hg10 mi
5:00 AM59 °FClear.6 mph55%30.24 "Hg10 mi
4:00 AM61 °FClear.9 mph52%30.24 "Hg10 mi
3:00 AM61 °FClear.9 mph48%30.24 "Hg10 mi
2:00 AM64 °FClear.7 mph46%30.24 "Hg10 mi
11:00 PM
Sep 22
66 °FClear.6 mph37%30.21 "Hg10 mi
10:00 PM68 °FClear.6 mph35%30.21 "Hg10 mi
9:00 PM72 °FClear.6 mph29%30.21 "Hg10 mi
8:00 PM72 °FClear.8 mph27%30.18 "Hg10 mi
7:00 PM75 °FClear.6 mph24%30.18 "Hg10 mi
6:00 PM81 °FClear.9 mph20%30.18 "Hg10 mi
5:00 PM82 °FPassing clouds.9 mph19%30.15 "HgN/A
4:00 PM82 °FPassing clouds.9 mph20%30.18 "HgN/A
3:00 PM82 °FPassing clouds.12 mph21%30.18 "HgN/A
2:00 PM82 °FPassing clouds.10 mph23%30.21 "HgN/A
1:00 PM79 °FPassing clouds.13 mph32%30.24 "HgN/A
12:00 PM77 °FPassing clouds.15 mph39%30.27 "HgN/A
11:00 AM73 °FScattered clouds.14 mph47%30.30 "HgN/A
10:00 AM72 °FScattered clouds.15 mph50%30.33 "HgN/A
Weather by CustomWeather, © 2014

See weather overviewHow to use our weather pages